FW8254 Weather Reports


Display with metric or nautical units.
time (UTC)temp
F
wind
direction
speed
MPH
gust
MPH
rain 1hr
in
rain 24hr
in
rain mn
in
humidity
%
barometer
mb
20260507163516 69 321 3.0 5.0 0.00 1.56 1.56 97 1005.5
20260507163015 68 345 3.0 6.0 0.00 1.56 1.56 98 1005.5
20260507162509 68 335 3.0 6.0 0.00 1.56 1.56 98 1005.2
20260507162006 68 3 2.0 3.0 0.00 1.56 1.56 98 1005.3
20260507161502 68 24 1.0 2.0 0.00 1.56 1.56 98 1005.4
20260507160959 68 300 3.0 3.0 0.00 1.56 1.56 98 1005.5
20260507160455 68 14 0.0 1.0 0.00 1.56 1.56 98 1005.3
20260507155951 67 29 1.0 1.0 0.05 1.56 1.56 98 1005.6
20260507155447 67 27 0.0 1.0 0.07 1.55 1.55 98 1005.7
20260507154944 67 35 1.0 1.0 0.07 1.55 1.55 98 1005.8
20260507154441 67 43 0.0 0.0 0.00 1.54 1.54 98 1005.5
20260507153938 67 5 2.0 3.0 0.00 1.54 1.54 98 1005.9
20260507153435 67 17 1.0 1.0 0.00 1.54 1.54 98 1005.7
20260507152931 67 39 0.0 0.0 0.00 1.54 1.54 98 1005.1
20260507152427 67 46 0.0 1.0 0.00 1.54 1.54 98 1004.7
20260507151923 67 44 0.0 1.0 0.00 1.54 1.54 98 1004.8
20260507151420 66 50 0.0 1.0 0.00 1.54 1.54 98 1005.1
20260507150917 66 44 0.0 0.0 0.00 1.54 1.54 98 1005.5
20260507150414 66 45 0.0 0.0 0.00 1.54 1.54 98 1005.5
20260507145910 66 45 0.0 0.0 0.00 1.54 1.54 98 1005.5
20260507145406 66 45 0.0 0.0 0.05 1.54 1.54 98 1005.6
20260507144903 66 50 0.0 1.0 0.00 1.53 1.53 98 1005.5
20260507144400 66 50 0.0 1.0 0.07 1.53 1.53 98 1005.4
20260507143857 66 48 0.0 0.0 0.07 1.53 1.53 98 1005.5
20260507143354 66 37 0.0 0.0 0.00 1.52 1.52 98 1006.1
20260507142851 66 44 0.0 1.0 0.17 1.52 1.52 97 1006.1
20260507142347 66 40 1.0 2.0 0.50 1.51 1.51 97 1006.3
20260507141844 66 72 3.0 3.0 0.90 1.48 1.48 97 1006.4
20260507141340 67 26 1.0 2.0 1.63 1.42 1.42 98 1006.0
20260507140837 67 32 1.0 2.0 1.91 1.31 1.31 98 1006.1
20260507140334 67 29 1.0 1.0 1.32 1.12 1.12 98 1006.0
20260507135832 67 31 0.0 1.0 1.25 0.97 0.97 97 1005.5
20260507135328 67 33 0.0 0.0 0.90 0.87 0.87 98 1005.5
20260507134826 67 21 0.0 1.0 0.31 0.76 0.76 97 1005.5
20260507134321 67 25 1.0 1.0 0.07 0.72 0.72 98 1005.5
20260507133817 67 25 1.0 2.0 0.00 0.71 0.71 97 1005.4
20260507133313 67 303 3.0 6.0 0.00 0.71 0.71 98 1005.5
20260507132812 67 324 3.0 3.0 0.00 0.71 0.71 98 1005.2
20260507132308 67 26 0.0 2.0 0.00 0.71 0.71 98 1005.3
20260507131805 67 49 0.0 1.0 0.00 0.71 0.71 98 1005.1
20260507131302 67 48 0.0 0.0 0.00 0.71 0.71 97 1005.6
20260507130758 67 49 1.0 1.0 0.78 0.71 0.71 97 1005.3
20260507130256 67 45 0.0 0.0 0.78 0.71 0.71 97 1005.5
20260507125755 67 45 0.0 0.0 0.00 0.58 0.58 97 1005.4
20260507125252 67 45 0.0 0.0 0.05 0.58 0.58 97 1005.5
20260507124749 67 45 0.0 0.0 0.12 0.58 0.58 97 1005.7
20260507124245 67 44 0.0 0.0 0.07 0.57 0.57 97 1006.0
20260507123744 67 45 0.0 0.0 0.00 0.56 0.56 97 1005.7
20260507123241 67 45 0.0 0.0 0.00 0.56 0.56 97 1005.7
20260507122736 67 44 0.0 0.0 0.00 0.56 0.56 97 1005.6
20260507122232 67 44 0.0 0.0 0.00 0.56 0.56 97 1005.7
20260507121728 67 44 0.0 1.0 0.00 0.56 0.56 97 1004.9
20260507121224 67 40 0.0 0.0 0.00 0.56 0.56 97 1005.0
20260507120720 67 40 0.0 0.0 0.00 0.56 0.56 97 1004.9
20260507120218 67 40 0.0 0.0 0.00 0.56 0.56 97 1004.9
20260507115714 67 40 0.0 0.0 0.00 0.56 0.56 97 1004.8
20260507115209 66 39 0.0 0.0 0.00 0.56 0.56 97 1004.9
20260507114705 66 40 0.0 0.0 0.00 0.56 0.56 97 1005.0
20260507114203 66 44 0.0 0.0 0.00 0.56 0.56 97 1004.9
20260507113700 66 33 0.0 1.0 0.00 0.56 0.56 97 1005.1
20260507113157 66 34 0.0 0.0 0.05 0.56 0.56 97 1004.7
20260507112655 66 54 0.0 1.0 0.05 0.56 0.56 97 1004.7
20260507112151 66 47 0.0 1.0 0.00 0.55 0.55 97 1005.2
20260507111649 66 347 2.0 3.0 0.00 0.55 0.55 97 1005.4
20260507111145 66 37 0.0 1.0 0.07 0.55 0.55 97 1005.8
20260507110641 66 37 1.0 2.0 0.12 0.55 0.55 97 1006.0
20260507110138 67 1 2.0 3.0 0.05 0.54 0.54 97 1006.1
20260507105635 67 291 4.0 6.0 0.24 0.53 0.53 97 1006.2
20260507105131 67 299 3.0 3.0 0.42 0.53 0.53 97 1006.0
20260507104629 67 10 1.0 2.0 0.47 0.48 0.48 97 1006.1
20260507104125 67 300 5.0 6.0 0.90 0.46 0.46 97 1006.8
20260507103621 67 299 4.0 8.0 0.66 0.40 0.40 97 1006.8
20260507103118 67 50 2.0 3.0 0.28 0.30 0.30 97 1006.5
20260507102614 67 318 2.0 3.0 0.50 0.29 0.29 97 1006.5
20260507102110 67 59 1.0 1.0 0.35 0.24 0.24 97 1006.5
20260507101607 67 23 2.0 3.0 0.24 0.20 0.20 97 1006.4
20260507101102 67 30 0.0 0.0 0.31 0.18 0.18 97 1006.3
20260507100600 67 35 0.0 0.0 0.17 0.15 0.15 97 1006.4
20260507100058 67 41 0.0 0.0 0.00 0.12 0.12 97 1006.0
20260507095556 67 41 0.0 0.0 0.00 0.12 0.12 97 1006.1
20260507095052 67 41 0.0 0.0 0.00 0.12 0.12 97 1006.3
20260507094548 67 41 0.0 0.0 0.00 0.12 0.12 97 1006.3
20260507094046 67 40 0.0 0.0 0.00 0.12 0.12 97 1006.3
20260507093543 67 41 0.0 0.0 0.00 0.12 0.12 97 1006.0
20260507093042 66 40 0.0 0.0 0.00 0.12 0.12 97 1006.2
20260507092537 67 40 0.0 0.0 0.00 0.12 0.12 97 1006.5
20260507092034 67 40 0.0 0.0 0.00 0.12 0.12 97 1006.8
20260507091531 67 40 0.0 0.0 0.00 0.12 0.12 97 1006.7
20260507091027 66 30 0.0 0.0 0.00 0.12 0.12 97 1006.7
20260507090523 67 30 0.0 0.0 0.07 0.12 0.12 97 1006.5
20260507090020 67 30 0.0 0.0 0.07 0.12 0.12 97 1006.5
20260507085517 67 28 0.0 1.0 0.00 0.11 0.11 97 1006.7
20260507085014 67 25 1.0 1.0 0.00 0.11 0.11 97 1006.9
20260507084510 67 12 1.0 2.0 0.00 0.11 0.11 97 1006.8
20260507084008 67 16 2.0 2.0 0.00 0.11 0.11 97 1006.8
20260507083504 67 21 1.0 2.0 0.07 0.11 0.11 97 1006.5
20260507083001 67 328 3.0 3.0 0.00 0.10 0.10 97 1006.7
20260507082457 67 15 1.0 2.0 0.00 0.10 0.10 97 1006.4
20260507081953 67 8 1.0 2.0 0.00 0.10 0.10 97 1006.5
20260507081449 67 12 2.0 2.0 0.00 0.10 0.10 97 1006.4
20260507080947 67 353 2.0 2.0 0.00 0.10 0.10 97 1006.3
20260507080443 67 16 1.0 1.0 0.00 0.10 0.10 97 1006.2
20260507075938 67 351 2.0 2.0 0.00 0.10 0.10 97 1006.4
20260507075435 67 33 0.0 2.0 0.00 0.10 0.10 97 1006.4
20260507074931 67 32 1.0 2.0 0.00 0.10 0.10 97 1006.6
20260507074428 67 339 2.0 3.0 0.00 0.10 0.10 97 1006.5
20260507073926 66 9 1.0 2.0 0.00 0.10 0.10 97 1006.6
20260507073422 67 35 0.0 3.0 0.00 0.10 0.10 97 1006.6
20260507072919 66 43 0.0 1.0 0.00 0.10 0.10 97 1006.6
20260507072416 66 32 0.0 1.0 0.00 0.10 0.10 97 1006.6
20260507071914 66 33 0.0 0.0 0.00 0.10 0.10 97 1006.4
20260507071411 66 34 0.0 0.0 0.00 0.10 0.10 97 1006.5
20260507070907 66 34 0.0 0.0 0.00 0.10 0.10 97 1006.7
20260507070405 67 34 0.0 0.0 0.00 0.10 0.10 97 1006.6
20260507065901 67 34 0.0 0.0 0.00 0.10 0.10 97 1006.6
20260507065358 67 34 0.0 0.0 0.00 0.10 0.10 97 1006.7
20260507064855 67 17 1.0 1.0 0.00 0.10 0.10 97 1006.8
20260507064353 67 24 1.0 1.0 0.00 0.10 0.10 97 1006.8
20260507063851 67 18 1.0 2.0 0.00 0.10 0.10 97 1007.1
20260507063348 67 28 0.0 0.0 0.00 0.10 0.10 97 1006.9
20260507062844 67 22 1.0 1.0 0.00 0.10 0.10 97 1006.8
20260507062341 67 40 0.0 0.0 0.00 0.10 0.10 97 1006.7
20260507061839 67 41 0.0 0.0 0.00 0.10 0.10 97 1006.7
20260507061337 67 41 0.0 0.0 0.00 0.10 0.10 97 1006.8
20260507060835 67 41 0.0 0.0 0.00 0.10 0.10 97 1006.7
20260507060332 67 41 0.0 0.0 0.00 0.10 0.10 97 1006.8
20260507055828 67 41 0.0 0.0 0.00 0.10 0.10 96 1006.6
20260507055323 67 41 0.0 0.0 0.00 0.10 0.10 96 1006.4
20260507054820 67 41 0.0 0.0 0.00 0.10 0.10 96 1006.7
20260507054316 67 41 0.0 0.0 0.00 0.10 0.10 96 1006.8
20260507053814 67 41 0.0 0.0 0.00 0.10 0.10 96 1006.8
20260507053312 67 43 0.0 0.0 0.00 0.10 0.10 96 1006.8
20260507052811 67 44 0.0 1.0 0.00 0.10 0.10 96 1006.6
20260507052307 67 42 0.0 1.0 0.00 0.10 0.10 96 1006.9
20260507051805 67 76 0.0 2.0 0.00 0.10 0.10 96 1006.8
20260507051302 67 54 0.0 1.0 0.00 0.10 0.10 96 1006.7
20260507050759 68 61 0.0 1.0 0.00 0.10 0.10 96 1007.0
20260507050255 68 61 0.0 1.0 0.00 0.10 0.10 96 1007.2
20260507045752 68 61 0.0 1.0 0.00 0.10 0.10 95 1007.5
20260507045249 68 61 0.0 1.0 0.00 0.10 0.10 95 1007.1
20260507044746 68 61 0.0 1.0 0.00 0.10 0.10 95 1007.3
20260507044242 68 61 0.0 1.0 0.00 0.10 0.10 95 1007.3
20260507043738 68 61 0.0 2.0 0.00 0.10 0.10 95 1007.5
20260507043235 68 61 1.0 1.0 0.00 0.10 0.10 95 1007.5
20260507042731 68 62 1.0 2.0 0.00 0.10 0.10 94 1007.5
20260507042226 68 68 1.0 2.0 0.12 0.10 0.10 94 1007.9
20260507041724 68 79 1.0 2.0 0.17 0.10 0.10 94 1008.1
20260507041220 68 52 0.0 0.0 0.40 0.08 0.08 94 1008.3
20260507040717 68 53 0.0 0.0 0.54 0.07 0.07 93 1008.5
20260507040213 68 58 0.0 0.0 0.31 0.01 0.01 93 1008.7
20260507035709 68 58 0.0 0.0 0.19 0.56 0.56 93 1008.5
20260507035205 68 59 1.0 1.0 0.12 0.54 0.54 93 1008.5
20260507034702 68 56 0.0 0.0 0.17 0.53 0.53 92 1008.7
20260507034200 68 56 0.0 0.0 0.19 0.52 0.52 92 1009.2
20260507033658 68 58 0.0 1.0 0.12 0.50 0.50 92 1008.9
20260507033155 68 57 0.0 0.0 0.17 0.49 0.49 91 1008.9
20260507032652 69 57 0.0 1.0 0.24 0.48 0.48 91 1008.8
20260507032148 69 56 0.0 0.0 0.26 0.46 0.46 91 1009.2
20260507031645 69 55 0.0 0.0 0.19 0.44 0.44 91 1009.4
20260507031141 69 58 0.0 1.0 0.24 0.42 0.42 90 1009.6
20260507030638 69 37 0.0 0.0 0.35 0.41 0.41 90 1010.3
20260507030136 69 355 2.0 2.0 0.28 0.38 0.38 90 1010.5
20260507025633 69 33 0.0 0.0 0.38 0.35 0.35 90 1010.5
20260507025130 69 40 0.0 0.0 0.31 0.33 0.33 89 1009.8
20260507024628 69 33 0.0 2.0 0.24 0.29 0.29 88 1010.2
20260507024125 69 44 0.0 2.0 0.31 0.28 0.28 88 1010.1
20260507023620 69 285 4.0 7.0 0.35 0.25 0.25 86 1010.1
20260507023118 69 291 6.0 8.0 1.02 0.23 0.23 84 1010.0
20260507022615 71 257 8.0 10.0 0.97 0.19 0.19 82 1010.1
20260507022110 73 338 3.0 10.0 0.31 0.06 0.06 77 1010.0
20260507021607 74 298 5.0 5.0 0.17 0.03 0.03 72 1008.7
20260507021103 77 25 1.0 1.0 0.05 0.01 0.01 66 1007.6
20260507020601 79 24 1.0 1.0 0.00 0.00 0.00 58 1007.4
20260507020057 80 21 0.0 1.0 0.00 0.00 0.00 56 1007.1
20260507015556 80 10 1.0 1.0 0.00 0.00 0.00 54 1007.1
20260507015053 80 14 1.0 1.0 0.00 0.00 0.00 54 1007.1
20260507014549 80 11 1.0 1.0 0.00 0.00 0.00 53 1007.0
20260507014045 80 11 1.0 2.0 0.00 0.00 0.00 54 1007.0
20260507013542 80 30 0.0 1.0 0.00 0.00 0.00 53 1006.6
20260507013039 80 28 1.0 2.0 0.00 0.00 0.00 54 1006.7
20260507012536 80 29 1.0 1.0 0.00 0.00 0.00 53 1006.5
20260507012032 80 30 0.0 0.0 0.00 0.00 0.00 53 1006.5
20260507011530 80 30 0.0 1.0 0.00 0.00 0.00 53 1006.4
20260507011026 80 30 0.0 1.0 0.00 0.00 0.00 53 1006.6
20260507010520 81 45 1.0 2.0 0.00 0.00 0.00 53 1006.5
20260507010017 81 47 1.0 2.0 0.00 0.00 0.00 53 1006.2
20260507005515 81 44 1.0 1.0 0.00 0.00 0.00 52 1006.2
20260507005011 81 45 0.0 1.0 0.00 0.00 0.00 52 1006.4
20260507004508 81 48 0.0 1.0 0.00 0.00 0.00 52 1006.4
20260507004006 81 49 1.0 1.0 0.00 0.00 0.00 52 1006.5
20260507003501 81 38 0.0 1.0 0.00 0.00 0.00 51 1006.5
20260507002955 81 26 0.0 0.0 0.00 0.00 0.00 52 1006.6
20260507002453 82 21 0.0 1.0 0.00 0.00 0.00 51 1006.6
20260507001949 82 23 1.0 1.0 0.00 0.00 0.00 51 1006.8
20260507001446 82 33 1.0 1.0 0.00 0.00 0.00 50 1006.7
20260507000943 82 33 1.0 2.0 0.00 0.00 0.00 50 1006.8
20260507000439 82 16 1.0 2.0 0.00 0.00 0.00 50 1006.5
20260506235934 83 47 1.0 2.0 0.00 0.00 0.00 49 1006.5
20260506235432 83 59 0.0 1.0 0.00 0.00 0.00 49 1006.4
20260506234927 83 40 0.0 1.0 0.00 0.00 0.00 49 1006.5
20260506234426 83 30 1.0 2.0 0.00 0.00 0.00 50 1006.6
20260506233923 83 53 0.0 1.0 0.00 0.00 0.00 48 1006.4
20260506233419 84 334 1.0 3.0 0.00 0.00 0.00 48 1006.7
20260506232916 84 21 2.0 2.0 0.00 0.00 0.00 48 1006.7
20260506232412 84 288 3.0 5.0 0.00 0.00 0.00 47 1006.9
20260506231908 84 310 4.0 5.0 0.00 0.00 0.00 48 1006.8
20260506231406 85 295 3.0 5.0 0.00 0.00 0.00 47 1006.6
20260506230903 85 7 2.0 3.0 0.00 0.00 0.00 47 1006.7
20260506230400 85 117 2.0 2.0 0.00 0.00 0.00 46 1006.5
20260506225856 85 277 5.0 6.0 0.00 0.00 0.00 46 1006.4
20260506225353 85 269 3.0 5.0 0.00 0.00 0.00 46 1006.6
20260506224850 85 337 3.0 6.0 0.00 0.00 0.00 46 1006.4
20260506224348 85 301 5.0 8.0 0.00 0.00 0.00 46 1006.8
20260506223844 85 323 3.0 3.0 0.00 0.00 0.00 46 1006.5
20260506223339 85 314 6.0 8.0 0.00 0.00 0.00 46 1006.6
20260506222836 85 312 4.0 5.0 0.00 0.00 0.00 46 1006.6
20260506222331 86 305 5.0 8.0 0.00 0.00 0.00 46 1006.6
20260506221830 85 251 4.0 5.0 0.00 0.00 0.00 47 1006.7
20260506221327 85 295 4.0 6.0 0.00 0.00 0.00 45 1006.7
20260506220825 85 321 3.0 5.0 0.00 0.00 0.00 46 1006.8
20260506220320 85 343 3.0 5.0 0.00 0.00 0.00 47 1006.9
20260506215817 84 296 3.0 3.0 0.00 0.00 0.00 47 1006.8
20260506215312 84 300 3.0 6.0 0.00 0.00 0.00 47 1006.9
20260506214808 84 248 6.0 6.0 0.00 0.00 0.00 47 1007.0
20260506214305 85 286 5.0 9.0 0.00 0.00 0.00 46 1006.7
20260506213804 85 268 8.0 14.0 0.00 0.00 0.00 46 1007.0
20260506213300 84 285 6.0 7.0 0.00 0.00 0.00 47 1006.9
20260506212758 85 290 6.0 9.0 0.00 0.00 0.00 47 1006.9
20260506212253 85 265 7.0 8.0 0.00 0.00 0.00 46 1007.2
20260506211748 85 224 5.0 7.0 0.00 0.00 0.00 44 1007.1
20260506211245 85 289 4.0 10.0 0.00 0.00 0.00 46 1006.9
20260506210742 85 277 7.0 8.0 0.00 0.00 0.00 45 1007.2
20260506210239 85 282 7.0 11.0 0.00 0.00 0.00 46 1007.3
20260506205736 85 305 6.0 8.0 0.00 0.00 0.00 45 1007.1
20260506205232 84 278 7.0 18.0 0.00 0.00 0.00 46 1007.1
20260506204729 85 271 12.0 16.0 0.00 0.00 0.00 46 1007.3
20260506204226 86 306 7.0 10.0 0.00 0.00 0.00 47 1007.2
20260506203724 85 33 3.0 3.0 0.00 0.00 0.00 47 1007.1
20260506203221 85 344 3.0 7.0 0.00 0.00 0.00 48 1007.1
20260506202719 85 307 4.0 7.0 0.00 0.00 0.00 49 1007.6
20260506202215 84 275 4.0 6.0 0.00 0.00 0.00 50 1007.4
20260506201712 83 301 4.0 7.0 0.00 0.00 0.00 50 1007.8
20260506201209 84 26 4.0 9.0 0.00 0.00 0.00 51 1007.9
20260506200706 84 56 1.0 2.0 0.00 0.00 0.00 49 1007.8
20260506200203 84 293 4.0 14.0 0.00 0.00 0.00 50 1007.7
20260506195659 83 277 5.0 8.0 0.00 0.00 0.00 50 1007.7
20260506195155 83 272 3.0 11.0 0.00 0.00 0.00 50 1007.8
20260506194653 83 140 3.0 6.0 0.00 0.00 0.00 48 1007.9
20260506194149 83 287 5.0 8.0 0.00 0.00 0.00 50 1008.3
20260506193647 82 289 5.0 7.0 0.00 0.00 0.00 49 1008.5
20260506193143 82 291 4.0 8.0 0.00 0.00 0.00 50 1008.7
20260506192640 81 284 5.0 8.0 0.00 0.00 0.00 50 1009.0
20260506192136 82 274 8.0 10.0 0.00 0.00 0.00 50 1008.6
20260506191633 82 34 2.0 6.0 0.00 0.00 0.00 50 1008.6
20260506191129 81 297 5.0 7.0 0.00 0.00 0.00 49 1008.7
20260506190627 81 291 3.0 6.0 0.00 0.00 0.00 50 1008.7
20260506190123 80 314 3.0 7.0 0.00 0.00 0.00 52 1009.1
20260506185621 80 286 6.0 8.0 0.00 0.00 0.00 50 1009.1
20260506185117 80 280 4.0 7.0 0.00 0.00 0.00 52 1009.0
20260506184614 80 334 3.0 6.0 0.00 0.00 0.00 51 1008.9
20260506184111 79 262 5.0 9.0 0.00 0.00 0.00 54 1009.0
20260506183608 79 298 5.0 9.0 0.00 0.00 0.00 52 1008.9
20260506183104 79 308 4.0 5.0 0.00 0.00 0.00 52 1009.1
20260506182602 80 333 3.0 8.0 0.00 0.00 0.00 52 1009.0
20260506182058 78 296 3.0 3.0 0.00 0.00 0.00 55 1009.3
20260506181556 77 279 3.0 6.0 0.00 0.00 0.00 58 1009.7
20260506181053 77 279 5.0 7.0 0.00 0.00 0.00 58 1009.8
20260506180550 77 237 4.0 7.0 0.00 0.00 0.00 63 1010.1
20260506180047 76 12 1.0 3.0 0.00 0.00 0.00 64 1010.1
20260506175543 76 304 5.0 6.0 0.00 0.00 0.00 64 1010.1
20260506175039 76 4 1.0 3.0 0.00 0.00 0.00 65 1010.1
20260506174538 75 321 3.0 5.0 0.00 0.00 0.00 65 1010.2
20260506174033 75 312 4.0 6.0 0.00 0.00 0.00 67 1010.5
20260506173532 75 263 4.0 6.0 0.00 0.00 0.00 65 1010.9
20260506173028 75 281 5.0 6.0 0.00 0.00 0.00 64 1010.8
20260506172526 75 270 6.0 8.0 0.00 0.00 0.00 68 1010.9
20260506172022 75 246 6.0 11.0 0.00 0.00 0.00 65 1010.9
20260506171519 75 278 5.0 6.0 0.00 0.00 0.00 66 1010.8
20260506171017 74 102 3.0 6.0 0.00 0.00 0.00 67 1011.0
20260506170514 74 337 3.0 6.0 0.00 0.00 0.00 67 1010.7
20260506170006 73 27 2.0 5.0 0.00 0.00 0.00 68 1010.7
20260506165504 73 315 4.0 6.0 0.00 0.00 0.00 69 1011.0
20260506165000 73 264 4.0 6.0 0.00 0.00 0.00 69 1011.1
20260506164456 73 243 6.0 7.0 0.00 0.00 0.00 70 1011.4
20260506163954 73 312 4.0 7.0 0.00 0.00 0.00 70 1011.5